Theta_e
333 330 328 326 316 315 313 309 297 298 298 294 295 296 295 298 301 300 302 303 302 325 327 329 327 320 318 317 319 328 327 323 324 316 315 333 345 347 347 350 353 353 353 354 355 354 354 353 353 352 352 353 354 354 354 353 353 353 352 352 352 352 352 353 353 352 352 352 352 351 351 350 349 349 349 349 349 349 349 348 347 347 347 347 346 346 345 345 346 346 346 346 347 347 346 346 346
331 319 317 320 314 313 307 304 299 297 295 293 295 296 298 299 300 304 308 307 303 325 330 331 331 331 331 331 331 331 327 331 332 332 335 342 345 347 350 351 351 350 353 355 355 354 353 354 352 351 353 354 353 353 353 353 353 353 353 353 353 353 353 353 353 352 352 351 351 350 350 350 349 349 349 349 350 349 349 348 348 348 348 347 346 345 344 343 344 345 344 344 345 346 346 345 345
323 316 314 316 309 308 306 304 294 295 292 289 293 296 299 299 304 311 317 308 324 328 329 328 329 329 327 327 325 327 324 335 336 338 336 342 338 342 349 351 352 353 354 355 354 354 353 353 352 352 353 353 353 353 353 352 352 352 352 352 352 353 352 352 352 351 351 351 350 350 350 350 349 349 349 350 350 350 349 348 347 348 349 348 346 345 345 344 343 343 344 345 345 345 345 345 345
317 315 314 314 306 306 303 299 296 294 291 292 292 296 297 303 307 312 324 324 328 326 327 325 325 330 327 322 327 332 331 331 338 338 334 338 340 345 348 351 354 353 355 353 354 353 353 353 352 353 353 354 353 353 353 353 353 352 352 352 352 352 352 352 352 352 351 351 350 350 350 349 350 350 350 350 350 350 349 348 347 347 347 348 348 347 345 345 344 344 344 344 345 346 346 346 345
316 315 310 309 306 301 301 296 296 295 291 294 292 295 299 300 301 308 325 327 327 326 326 326 326 330 333 330 331 324 328 337 338 340 339 343 347 348 349 351 352 352 352 353 354 353 353 353 353 352 353 353 353 353 353 353 353 353 352 352 352 353 352 352 352 352 352 352 351 350 350 348 350 351 350 350 350 350 350 350 349 349 347 347 348 347 346 345 344 344 344 345 346 346 347 345 345
309 309 310 308 303 305 300 294 293 294 297 296 295 298 300 301 301 303 304 311 321 325 327 327 323 325 328 332 334 330 336 328 339 340 342 342 347 350 350 351 350 350 351 353 354 354 353 353 352 352 352 353 354 354 353 353 353 353 353 352 352 352 352 352 352 352 352 352 352 352 351 350 351 350 350 350 350 350 349 350 350 349 348 347 347 346 345 345 345 345 345 346 347 347 346 345 345
308 307 307 305 303 303 297 294 293 295 298 298 298 299 300 300 301 301 302 304 321 326 329 326 330 330 326 331 334 339 342 342 341 342 345 345 349 349 351 349 349 350 352 352 353 354 353 352 352 352 353 353 353 353 353 354 353 353 353 352 351 352 351 352 352 351 351 351 351 351 351 351 351 350 350 350 349 349 349 350 349 348 348 347 346 347 346 346 345 345 346 346 346 345 345 344 344
308 305 303 301 297 298 295 295 295 296 296 297 300 299 302 301 301 300 301 304 309 319 327 329 330 327 325 335 326 338 343 344 345 346 346 347 348 348 349 349 348 348 350 353 354 354 354 351 352 352 353 353 353 353 353 353 354 353 352 352 352 351 351 351 351 351 351 350 350 350 350 350 350 350 350 349 349 348 347 347 346 347 347 345 345 346 346 346 345 344 345 344 344 344 344 344 342
306 305 300 300 296 295 294 294 295 296 297 298 300 302 306 305 302 301 301 305 314 324 326 328 328 322 325 329 329 336 340 345 347 347 346 347 346 348 347 347 346 347 349 351 354 355 354 351 352 352 353 353 353 353 353 353 353 353 352 352 351 350 351 351 351 350 350 350 350 350 350 350 350 350 351 350 350 349 348 347 347 346 346 346 345 345 345 346 346 345 344 344 344 344 345 343 342
304 303 299 298 297 292 291 294 292 296 296 300 299 301 303 301 301 302 301 301 303 325 327 330 326 323 329 326 330 334 337 344 346 344 345 346 346 346 347 348 347 348 348 350 352 353 353 353 351 351 351 353 352 352 352 352 352 352 352 351 350 350 350 350 350 350 350 350 350 350 350 350 350 350 350 350 349 348 348 347 348 347 347 345 345 345 344 344 345 345 344 344 344 344 343 342 341
301 300 299 297 293 293 291 293 293 296 297 299 300 302 302 301 300 300 301 301 309 320 327 330 326 327 328 327 332 340 342 343 343 340 343 345 345 345 346 348 348 349 348 350 352 353 353 354 353 351 351 351 350 350 351 351 351 351 350 350 350 350 350 349 349 350 350 350 350 349 350 350 349 349 349 349 349 348 347 346 346 346 346 345 345 346 344 345 344 344 344 343 343 342 342 342 342
299 300 298 295 293 293 293 293 294 297 299 298 300 302 301 299 299 298 299 300 318 325 326 329 324 331 326 326 329 338 339 341 341 342 343 345 344 345 345 347 348 349 350 350 351 353 353 354 350 351 351 350 350 351 350 350 351 350 350 350 350 349 349 348 349 349 349 350 349 349 349 349 349 349 349 349 349 348 348 347 347 347 346 346 346 345 345 344 344 344 343 343 342 341 341 341 341
301 297 297 295 294 294 293 292 294 297 298 299 299 301 301 299 299 301 301 313 324 324 324 329 332 331 323 326 335 337 335 338 339 341 343 343 343 345 346 346 346 347 348 350 350 351 353 350 351 349 351 349 350 350 350 350 349 348 349 350 349 349 349 349 349 349 349 349 348 349 349 349 349 349 349 349 349 348 348 347 347 346 346 345 345 345 344 344 344 343 342 342 341 341 341 341 341
302 299 298 294 292 293 294 295 294 295 296 299 298 300 300 305 307 310 319 320 324 322 327 332 333 333 327 330 330 331 335 338 338 341 342 343 343 343 344 345 347 347 348 349 348 350 350 350 350 350 351 351 351 351 349 349 349 349 348 349 349 349 349 349 349 348 348 348 349 349 349 349 348 348 348 348 348 347 347 347 347 346 345 346 345 345 344 344 343 342 342 342 342 341 342 342 341
303 298 300 296 293 293 294 293 295 295 297 298 299 299 304 313 317 323 323 323 323 328 332 336 333 327 322 324 326 331 334 336 338 341 341 342 341 342 342 344 346 347 347 348 350 350 349 347 350 350 353 352 351 352 352 349 347 348 348 350 349 348 349 349 349 348 348 349 349 349 349 349 349 348 347 348 347 347 347 346 346 346 345 345 345 345 344 343 342 342 341 341 341 342 341 341 341
303 299 299 295 292 292 294 294 293 295 297 298 299 299 301 316 318 322 320 321 326 332 333 327 333 321 327 328 331 336 336 337 339 340 340 339 340 340 341 342 343 344 345 347 349 346 350 347 351 351 351 350 351 351 350 350 349 348 350 349 349 349 349 349 348 348 348 349 349 349 348 349 347 349 348 348 347 347 346 345 346 345 345 345 345 344 344 343 342 341 341 341 340 340 341 341 340
300 302 295 294 292 291 294 295 294 295 299 299 299 300 299 307 321 326 329 328 327 327 326 327 328 332 328 332 338 339 337 338 338 338 337 336 337 336 338 339 341 342 343 345 346 341 344 346 345 343 349 349 350 350 350 350 349 348 350 350 349 349 349 349 348 348 348 349 348 348 346 350 349 349 348 347 347 348 346 346 345 345 345 344 344 344 344 343 342 342 342 341 340 339 339 338 339
302 298 296 293 294 292 296 296 297 298 298 300 299 298 300 300 321 324 328 327 327 326 326 330 334 335 337 339 341 339 336 335 335 333 332 331 333 332 332 334 336 336 340 339 338 343 344 345 345 345 347 348 349 349 350 348 347 348 350 352 352 350 350 350 350 349 349 348 348 349 348 348 347 347 347 345 347 347 346 345 345 344 345 344 343 343 343 342 342 342 342 341 339 338 337 338 338
300 296 295 294 293 297 300 298 298 298 299 299 299 298 298 300 318 319 320 322 324 322 324 328 329 334 337 338 337 335 334 333 332 332 331 330 329 329 329 331 333 335 336 336 337 339 341 345 346 345 345 347 348 348 349 350 349 350 349 350 350 348 350 350 348 348 347 346 347 346 348 349 348 347 348 345 345 345 346 343 345 344 343 343 343 344 343 342 342 342 342 340 338 336 339 338 337
299 298 294 295 297 299 297 298 299 299 299 299 300 298 297 300 307 312 318 321 322 320 321 324 328 328 331 333 335 334 333 332 332 332 331 330 329 330 329 329 330 332 334 335 334 338 345 344 345 345 345 347 347 347 348 348 348 350 348 348 350 351 349 352 348 347 346 347 346 347 350 350 349 351 343 344 344 347 348 342 341 344 344 343 342 342 343 342 341 340 341 340 340 340 338 336 335
299 297 295 296 297 296 300 298 300 299 298 299 298 298 299 300 299 316 321 319 319 322 324 324 325 328 331 333 333 333 332 332 332 332 331 330 330 331 331 332 332 332 336 338 337 338 342 343 344 346 347 347 346 348 347 347 347 345 346 347 347 349 348 348 348 347 347 347 347 348 348 349 349 349 348 347 347 348 348 347 348 348 343 343 344 342 342 342 343 341 342 340 340 340 337 337 337
298 298 299 297 295 296 301 300 298 299 297 298 297 298 299 300 316 316 320 311 309 319 324 325 330 332 332 332 333 333 333 333 333 331 330 330 329 330 332 333 334 334 336 338 336 339 340 343 343 344 346 345 347 347 347 347 347 346 345 347 349 348 348 349 348 347 346 347 346 346 348 348 348 348 347 347 347 347 347 346 346 346 343 343 344 341 341 342 341 340 340 339 340 341 340 339 338
296 297 295 296 298 298 300 299 297 297 298 297 297 299 300 300 301 317 320 315 312 316 316 325 333 334 335 336 334 333 333 332 332 331 330 329 330 330 331 333 332 333 336 339 338 338 338 341 342 343 344 344 344 347 345 346 346 347 348 348 346 348 350 347 346 346 346 347 346 348 345 346 346 346 346 346 345 345 345 345 343 344 342 341 344 341 342 342 340 340 341 340 340 340 339 338 336
298 297 295 298 296 297 299 299 296 297 296 298 298 298 298 298 297 303 317 320 314 325 322 331 335 336 336 333 334 334 333 333 332 331 331 330 331 330 332 333 333 335 336 335 337 336 340 340 343 342 343 342 344 345 345 344 347 345 348 346 346 347 347 346 346 346 345 346 346 346 347 345 344 344 344 344 343 343 344 344 344 343 342 341 342 342 342 341 339 340 343 341 339 339 336 337 335
296 296 297 298 295 298 299 297 297 296 296 298 296 297 298 299 299 308 308 316 321 329 331 334 335 335 334 333 333 334 333 333 332 331 331 332 333 334 333 334 335 335 334 334 335 334 338 340 341 341 343 343 344 345 343 344 345 345 345 345 345 346 345 345 345 345 344 345 346 347 346 345 344 343 342 342 341 344 343 343 343 343 344 342 342 342 341 341 341 340 340 339 339 339 338 338 336
297 298 297 296 297 299 298 297 298 297 297 297 297 298 298 298 303 301 305 316 327 331 332 334 334 332 332 333 334 334 333 333 332 330 330 332 333 333 331 331 333 331 333 335 335 338 339 340 340 341 342 342 343 343 344 344 343 345 345 346 345 345 344 344 343 343 344 344 344 345 345 345 344 343 341 341 340 342 343 343 343 343 343 344 343 341 343 342 341 340 340 339 337 338 337 337 336
297 297 297 298 299 296 297 297 298 294 297 297 298 298 297 298 298 298 313 326 329 330 330 332 332 331 332 332 334 335 333 332 332 333 331 331 331 330 330 331 330 331 333 332 336 338 341 340 340 340 341 343 342 341 343 342 342 343 343 343 344 344 344 343 341 342 342 342 340 334 332 336 338 337 333 333 334 341 341 341 342 343 344 343 344 343 343 343 342 341 340 339 339 336 334 335 335
296 297 296 296 296 296 297 295 297 296 299 297 299 297 297 299 300 300 317 327 330 328 328 329 330 330 331 332 333 334 333 332 333 332 328 327 328 329 330 330 332 334 330 333 338 340 340 339 340 341 341 343 343 342 343 341 341 341 343 342 342 344 344 342 340 340 342 340 334 333 332 334 333 331 330 329 329 330 334 340 342 343 343 344 344 343 343 344 343 341 342 341 340 337 336 335 335
297 297 295 297 295 297 296 297 296 296 299 296 298 297 296 296 298 300 316 327 329 328 326 328 329 330 331 332 332 333 333 331 331 331 331 330 330 330 330 334 335 335 336 337 339 339 339 340 340 341 342 343 342 342 342 341 342 341 342 341 342 342 342 341 340 341 341 336 335 335 334 334 332 332 331 331 330 330 330 333 339 342 343 343 343 343 343 344 343 342 342 341 338 338 337 336 335
297 297 295 295 295 295 296 294 294 295 297 295 298 292 295 297 299 306 323 327 328 326 325 326 327 329 330 331 331 332 334 331 330 331 331 330 330 331 332 335 336 335 336 339 338 336 339 341 341 342 342 342 343 343 343 342 342 342 343 342 342 342 341 340 340 341 341 337 336 337 335 333 335 336 334 331 330 331 331 330 335 341 342 342 343 342 342 342 341 340 339 338 337 337 336 336 335
295 294 295 293 292 292 295 295 295 296 296 295 299 293 295 297 299 299 321 328 326 324 325 326 326 327 328 329 330 330 331 332 331 331 330 330 331 333 333 332 333 333 329 327 326 327 333 339 340 340 342 342 343 342 342 342 342 342 341 341 341 341 340 339 339 338 337 335 335 337 336 336 337 336 335 333 331 330 330 332 333 340 341 342 342 342 342 341 341 339 338 337 337 337 338 337 337
294 292 291 291 291 294 296 297 296 296 296 296 298 293 295 298 299 298 322 326 326 324 324 325 325 326 327 328 329 329 330 332 332 331 330 330 331 333 333 334 335 335 334 331 328 327 326 331 340 340 341 341 342 342 342 342 341 342 341 340 340 340 338 338 338 338 337 337 336 336 338 338 338 337 334 333 332 332 331 331 334 338 339 340 341 342 341 341 340 339 339 338 336 335 334 334 336
293 292 292 290 291 293 295 295 296 297 297 296 297 293 295 296 298 297 316 326 325 324 323 324 324 325 325 327 327 328 327 327 329 330 330 330 332 333 334 336 335 335 335 334 329 326 326 325 330 338 340 341 342 342 342 341 340 340 341 340 339 339 338 338 338 336 335 335 335 335 336 338 338 338 336 333 332 333 333 334 334 337 338 339 339 340 339 340 339 337 336 339 338 335 334 332 334
291 292 292 292 291 293 292 298 297 295 296 295 296 294 296 298 297 306 319 325 324 323 323 323 324 325 325 326 327 327 327 326 327 329 331 332 333 333 335 334 334 333 335 336 333 329 326 325 326 330 340 342 342 341 340 340 339 340 340 339 339 338 338 338 338 337 336 334 334 335 335 336 337 336 338 337 335 336 336 334 335 336 337 338 338 338 338 338 338 338 333 333 335 335 335 334 333
290 291 292 291 291 292 293 293 296 296 294 296 295 295 296 298 297 309 321 324 324 323 323 323 324 324 324 325 325 326 327 327 328 331 331 332 334 333 334 333 332 333 333 332 333 333 327 326 327 329 338 339 339 339 339 338 338 338 338 338 337 337 337 336 337 337 335 335 335 334 335 336 335 335 336 338 339 338 336 336 335 336 337 337 337 337 337 337 337 336 333 330 334 336 336 336 334
292 292 292 292 291 292 292 296 296 297 297 296 294 294 296 298 298 299 319 323 322 323 323 323 323 324 324 324 325 326 326 328 331 330 330 332 334 334 332 332 332 331 332 331 332 333 331 329 329 331 336 338 338 338 338 338 338 337 335 335 335 335 335 335 336 335 335 335 334 334 334 335 334 335 335 336 337 335 334 334 334 336 338 338 337 335 336 336 335 334 335 331 331 332 334 334 334
292 292 292 291 291 293 294 294 296 297 296 297 297 297 297 297 298 299 318 321 321 321 321 321 322 323 323 323 324 325 326 328 329 329 330 331 333 333 332 331 330 331 332 332 330 331 331 331 331 331 334 335 337 337 338 338 337 334 335 335 334 334 334 334 334 334 335 334 334 333 334 334 334 334 335 335 335 334 334 334 334 336 337 338 337 336 335 335 335 334 332 332 330 328 329 331 331
293 292 291 291 291 293 296 295 294 298 297 295 293 294 295 297 298 297 314 320 318 320 322 322 322 323 323 323 323 325 327 327 326 328 329 330 331 332 331 330 329 329 330 332 332 331 331 333 333 335 332 335 339 338 338 338 338 337 335 333 334 333 334 334 333 333 333 333 334 334 334 334 334 334 335 335 335 334 333 334 335 336 337 337 335 334 334 333 333 332 331 329 329 329 327 329 329
294 292 292 292 294 293 296 293 295 296 296 295 293 293 295 296 296 297 313 319 321 323 324 324 323 322 322 322 323 325 325 325 326 328 329 329 331 331 331 330 329 331 331 331 332 331 331 333 334 334 333 335 337 338 338 337 336 335 336 333 333 328 327 331 331 330 330 329 332 333 334 335 335 334 335 334 334 334 334 334 333 334 336 334 333 333 333 333 334 334 334 330 327 329 328 330 330
294 292 292 291 292 291 292 296 296 297 294 295 293 293 295 297 299 299 302 317 312 318 322 322 325 323 322 322 323 324 325 325 324 326 327 329 331 331 330 329 329 330 329 329 329 330 331 332 333 332 333 335 335 336 336 336 334 331 331 331 330 331 328 327 328 327 328 327 328 330 334 334 334 335 335 334 335 334 335 334 334 335 335 335 334 332 331 331 332 333 333 332 331 325 325 326 331
294 295 293 292 292 293 293 294 296 296 297 295 295 295 294 296 296 297 301 304 309 315 319 321 323 325 325 325 325 326 326 326 325 325 327 328 328 330 329 330 331 329 329 329 328 329 330 331 331 332 332 332 333 333 334 332 329 328 327 327 328 327 328 328 327 325 328 329 328 330 330 334 335 335 335 335 335 334 334 334 334 334 333 333 333 332 331 330 331 333 333 331 329 329 327 328 328
293 295 295 295 295 295 292 294 295 295 294 297 293 289 290 296 295 297 298 303 310 310 316 318 321 323 323 322 324 326 327 327 327 325 326 327 328 330 331 330 328 328 329 330 331 331 331 330 330 331 331 330 330 332 332 331 329 328 327 327 326 327 327 327 326 324 324 326 324 326 326 328 331 334 335 335 334 333 333 334 334 333 333 333 333 333 332 331 330 331 332 332 330 332 330 327 326
291 294 297 296 294 294 295 293 294 291 289 295 295 289 287 295 295 296 297 298 305 308 313 317 319 321 323 323 324 325 325 325 326 327 326 326 328 328 330 330 328 328 330 332 332 332 331 330 329 330 329 328 329 330 331 331 330 329 330 331 330 328 326 324 324 324 325 322 324 325 324 327 326 332 334 335 335 334 334 333 333 334 334 333 333 332 331 331 331 332 333 333 332 331 331 327 326
291 297 294 294 293 294 295 295 295 293 296 295 294 294 290 289 294 297 295 299 301 304 308 313 317 320 321 323 324 325 325 325 324 324 325 327 327 327 328 330 329 329 331 331 331 331 330 329 328 328 328 327 327 330 330 332 330 330 330 329 328 327 326 322 324 323 324 322 322 322 324 324 325 328 331 334 337 335 334 333 334 333 332 332 332 331 331 331 332 333 334 334 332 331 330 329 326
294 294 294 294 295 296 295 295 295 293 293 291 294 293 291 290 295 297 297 297 299 301 304 309 314 317 320 322 323 324 325 325 325 324 325 326 326 327 328 329 330 331 331 330 330 330 330 329 328 328 327 326 326 329 330 330 331 330 330 328 324 324 324 323 323 323 321 322 321 321 323 323 325 326 328 332 334 335 335 334 333 332 332 333 332 331 332 332 331 331 332 331 332 331 332 332 329
294 293 294 294 294 293 295 295 294 293 291 287 292 292 289 289 294 295 295 297 298 301 304 306 310 314 318 319 321 323 324 324 324 325 325 326 327 327 329 329 329 327 328 328 329 329 328 327 326 326 326 325 326 328 329 329 329 329 328 328 325 323 323 323 323 321 320 322 321 321 322 323 324 326 326 327 329 331 333 334 333 332 333 332 331 332 332 331 332 332 332 333 333 332 332 331 330
294 294 296 294 294 294 294 293 293 292 285 289 290 290 290 286 293 295 295 296 297 298 301 301 302 309 314 318 320 320 321 322 322 322 324 324 325 325 325 325 323 321 322 322 323 324 325 326 325 325 326 324 325 327 327 327 328 329 328 327 327 324 325 324 322 321 319 321 320 321 322 322 323 324 325 326 326 327 329 330 331 331 332 331 329 330 331 330 330 330 330 331 331 331 331 330 330
294 295 294 294 293 295 294 293 294 286 284 289 289 290 291 286 290 295 297 298 297 297 298 300 301 302 309 315 317 319 321 321 321 320 320 321 321 322 323 322 321 319 319 319 321 322 321 321 321 323 324 324 323 326 326 326 326 327 328 327 326 326 325 325 324 322 321 320 321 320 320 321 322 323 325 325 325 326 327 327 327 328 326 327 326 327 326 326 326 326 327 328 328 328 329 329 328
294 294 294 289 286 286 283 288 283 284 284 289 291 289 289 289 293 295 297 299 299 299 299 300 301 301 302 305 314 317 318 319 319 319 319 320 320 320 321 321 322 321 320 319 320 321 321 320 320 319 319 323 323 324 325 326 326 326 326 326 326 326 326 326 325 323 321 320 320 320 321 321 321 323 323 324 323 324 325 327 327 326 325 324 323 323 323 322 324 324 324 324 325 326 327 327 323
292 292 291 287 282 280 276 281 283 285 289 290 290 290 288 292 294 296 296 299 301 302 303 304 304 304 304 303 307 314 316 318 318 317 317 317 318 318 321 321 321 321 322 322 321 321 321 320 319 318 319 320 321 323 324 324 324 324 325 325 325 325 325 325 324 323 321 321 321 321 322 322 322 324 324 323 321 321 323 323 324 323 322 322 322 322 321 320 322 320 322 322 321 321 321 321 319
293 293 293 290 288 283 276 282 279 282 286 289 289 288 287 288 291 297 298 299 302 306 307 307 308 308 308 304 305 313 314 315 315 315 315 317 319 321 321 321 322 322 324 325 324 322 321 320 319 318 318 319 319 320 321 320 320 321 322 322 323 324 323 322 322 323 321 319 319 320 321 322 323 323 322 321 320 321 322 322 322 321 320 321 320 320 320 320 321 319 319 320 318 318 319 319 318
290 291 294 290 288 294 285 285 287 287 286 285 287 287 290 292 294 297 298 303 305 306 307 308 308 309 309 309 310 311 312 314 315 315 317 319 322 323 323 320 319 320 321 322 325 324 323 322 320 319 318 317 318 319 319 320 321 322 322 321 321 322 321 321 320 319 318 319 317 319 320 321 321 320 320 320 319 320 321 321 320 320 319 319 319 319 319 319 320 319 317 318 315 316 319 318 317
291 290 290 291 296 294 283 283 284 282 285 284 286 289 291 295 293 296 299 301 301 302 303 307 307 308 310 309 310 312 313 314 316 317 318 320 321 322 322 322 319 319 319 321 325 324 324 322 319 318 317 317 319 319 321 322 324 323 324 320 321 323 322 320 319 319 319 318 317 318 319 319 319 320 320 320 319 319 320 320 320 318 318 318 318 318 317 318 319 319 318 317 316 316 317 316 317
291 288 291 293 295 297 291 283 282 283 282 282 286 285 287 289 287 295 297 296 298 298 298 305 307 308 308 309 311 312 313 315 317 318 320 322 322 320 320 318 317 317 316 318 322 323 323 323 321 318 315 316 317 319 321 324 324 323 322 322 322 322 322 320 321 319 317 316 315 316 318 318 319 320 320 320 320 319 320 318 319 318 318 318 318 317 316 316 318 316 316 314 314 315 314 314 315
294 293 296 292 286 285 288 287 277 278 277 281 285 283 286 288 290 292 294 294 295 297 298 301 304 305 307 308 310 311 312 313 312 313 314 315 317 318 317 315 315 316 316 317 320 322 323 323 322 319 317 318 318 320 322 323 323 322 323 322 322 321 318 317 318 320 318 316 315 316 318 318 318 319 320 319 319 319 319 318 319 318 318 318 318 317 316 316 317 316 316 314 314 315 313 313 314
292 293 292 291 294 292 286 287 289 288 279 277 281 285 285 289 290 291 293 295 295 296 297 298 303 305 306 307 309 309 311 311 312 313 314 314 315 316 317 317 315 315 316 316 319 322 323 322 320 319 319 319 320 320 322 324 323 323 322 322 323 322 320 321 320 319 316 316 315 315 316 317 319 319 321 320 319 318 319 318 318 318 318 318 318 318 317 316 317 317 316 314 315 315 313 313 312
289 292 289 290 290 289 291 289 287 286 281 281 281 280 286 290 292 292 293 294 295 295 296 298 303 305 306 306 308 309 310 311 311 312 314 314 315 316 316 317 316 317 317 318 319 321 321 321 320 319 319 319 320 322 324 324 323 322 323 323 322 321 322 322 321 319 318 318 317 315 316 318 318 319 320 319 318 318 318 318 317 317 317 318 318 318 318 317 316 316 316 316 315 314 313 313 314
292 292 290 290 287 286 284 282 285 285 286 279 280 280 289 291 294 293 293 295 295 297 297 298 304 305 306 307 308 308 309 310 311 311 312 314 316 317 317 318 318 319 318 318 319 320 320 321 320 320 320 319 320 321 323 323 322 323 323 323 323 323 323 322 320 319 319 319 318 317 316 316 317 319 320 318 318 319 318 317 317 316 316 316 316 316 317 317 315 317 317 317 317 314 313 313 315
Wind_Speed
2 2 2 2 1 2 3 1 5 2 2 3 3 3 1 2 1 4 5 2 4 2 1 2 4 8 5 3 4 6 5 10 3 7 2 3 6 10 14 15 17 17 17 15 14 14 15 16 16 17 17 17 16 18 19 19 18 17 16 16 16 15 14 14 14 13 13 13 13 13 13 14 14 14 13 13 13 13 14 15 15 15 16 16 16 15 14 14 13 13 12 13 13 13 13 13 12
1 2 2 1 2 3 4 1 1 2 1 2 6 0 1 1 2 3 7 3 1 4 4 6 7 6 7 6 9 8 7 6 4 3 2 6 10 9 12 17 19 19 16 15 14 13 14 15 17 17 17 17 17 17 19 20 19 18 17 16 16 15 14 13 14 14 14 13 14 14 14 14 13 14 13 12 10 11 10 13 14 16 16 16 16 15 14 13 14 13 13 13 13 13 13 13 13
2 2 3 1 2 2 3 1 3 1 5 5 4 4 2 4 3 5 3 2 6 5 1 2 3 4 2 1 3 5 4 2 6 5 5 11 13 8 14 17 18 18 17 14 14 13 12 14 16 17 18 17 17 16 16 17 18 19 19 18 17 16 15 15 15 15 14 13 14 14 13 13 13 13 13 12 11 10 11 11 13 14 16 17 16 15 14 14 13 13 13 12 12 12 13 13 13
3 0 2 2 4 3 4 1 0 4 6 3 4 3 4 5 4 3 4 7 6 1 0 3 1 2 3 3 4 2 6 4 1 7 6 11 8 12 14 17 16 15 14 13 14 12 12 16 16 17 18 17 17 17 17 17 17 17 16 15 15 14 13 13 13 14 14 14 14 13 13 13 12 12 12 12 11 11 12 12 12 12 15 16 16 15 14 13 13 13 13 12 13 13 14 14 13
2 1 2 1 2 3 3 1 1 1 7 5 2 2 4 5 5 4 5 4 3 1 3 3 4 3 6 5 2 1 2 4 6 4 7 7 10 12 15 16 15 15 15 14 14 13 14 19 17 17 17 18 18 17 17 17 17 16 16 15 14 13 12 12 12 13 13 13 13 13 12 12 11 12 11 11 11 10 10 10 9 10 13 14 13 13 13 13 13 13 13 13 13 14 15 14 13
2 1 0 2 2 2 3 3 4 7 4 3 2 4 4 4 2 2 3 4 3 3 0 3 1 3 3 4 2 2 2 3 5 5 8 8 13 14 16 14 15 15 14 14 13 12 14 17 17 17 17 17 17 17 17 17 17 15 15 14 14 13 12 11 12 12 12 12 11 11 11 11 11 11 11 10 10 10 7 9 12 12 14 13 13 12 12 12 12 12 13 13 13 14 14 13 11
3 3 1 2 2 1 3 4 6 7 5 5 2 2 4 1 3 3 6 6 4 3 2 2 6 9 5 3 3 3 3 2 6 7 7 12 13 14 15 14 14 15 15 13 12 12 17 16 17 17 17 17 17 16 16 16 16 15 15 15 14 13 13 12 11 12 12 11 11 11 11 11 11 10 10 10 10 9 10 11 13 13 13 12 13 12 12 11 11 11 12 13 14 13 12 11 9
2 2 1 3 2 1 3 3 6 3 2 5 2 5 1 3 3 2 6 3 1 6 3 5 5 2 4 1 1 3 3 1 6 11 12 13 14 14 14 14 15 15 14 13 12 12 16 14 15 16 16 16 17 17 16 16 15 15 15 14 13 12 12 11 10 10 10 11 11 11 11 11 10 9 10 10 10 10 10 11 11 12 12 10 12 12 11 11 11 10 12 12 13 13 12 10 8
1 1 1 2 3 2 1 5 4 2 6 5 9 6 7 5 5 5 7 6 1 1 6 8 5 5 5 4 3 4 4 8 11 14 13 14 14 14 11 13 14 14 13 12 11 13 14 14 14 15 15 15 16 16 15 15 14 14 15 15 14 11 10 10 10 10 10 10 10 11 11 10 10 9 9 10 10 10 10 10 10 11 11 11 12 12 12 11 12 11 11 11 11 11 11 10 8
3 2 3 1 2 5 1 3 3 2 4 4 6 9 6 3 4 8 7 8 8 7 5 2 0 2 8 5 4 2 4 9 13 13 13 14 14 13 13 13 14 16 13 12 12 13 12 17 15 15 15 14 14 14 14 12 11 11 12 14 14 12 11 10 9 9 9 9 10 10 10 9 9 9 9 10 10 10 10 10 10 11 10 11 10 11 11 12 12 11 10 10 9 10 10 10 8
3 2 2 3 3 4 7 4 3 4 3 4 7 8 6 3 5 5 10 3 5 8 6 6 5 8 6 4 3 2 7 10 12 14 14 13 13 13 12 11 13 14 13 13 13 12 12 13 17 15 15 14 13 14 16 15 11 10 10 11 14 14 11 9 9 9 9 9 9 10 9 9 10 10 10 10 10 10 10 10 10 11 10 10 10 10 11 12 12 12 11 10 9 8 7 7 8
3 2 2 2 4 5 2 3 2 3 6 1 3 2 1 3 5 4 8 11 7 9 8 8 5 9 7 5 4 5 8 9 12 12 13 12 11 12 12 10 12 13 14 13 13 12 11 11 12 15 16 16 13 11 13 15 13 9 10 12 14 14 13 10 8 8 8 9 9 9 9 9 9 9 10 10 10 10 10 10 10 10 10 10 10 10 11 12 12 12 11 10 8 7 6 5 5
0 1 3 2 1 2 2 2 1 3 4 2 4 4 5 1 5 7 7 5 7 10 4 5 10 3 5 4 4 7 8 10 11 12 13 11 11 11 11 11 12 13 13 13 12 13 11 11 10 11 12 16 13 12 12 14 14 12 8 9 13 13 12 10 9 8 8 9 8 8 8 8 8 9 9 10 10 10 10 10 10 9 9 9 9 9 10 12 12 12 10 9 8 7 5 4 3
2 3 4 4 2 1 3 1 1 2 2 1 0 7 4 4 4 2 8 8 8 6 3 6 8 6 7 6 3 6 7 10 12 13 11 12 10 12 12 12 12 12 12 12 12 12 11 10 11 10 13 13 12 12 13 14 14 12 10 8 10 12 12 10 9 8 8 8 9 9 9 8 8 9 9 9 9 10 10 9 9 9 9 9 9 9 10 12 12 11 10 9 9 8 7 4 2
2 2 2 1 2 2 1 4 3 4 2 1 3 5 4 2 1 4 3 8 6 3 5 4 2 4 4 7 5 8 9 12 13 13 12 12 12 12 12 11 11 11 10 10 9 9 10 11 9 10 10 10 11 8 7 10 16 14 10 9 10 11 11 10 9 8 8 8 8 9 9 9 9 9 9 9 9 9 10 9 8 9 9 9 9 9 9 11 11 11 10 10 9 9 8 7 5
2 3 1 4 3 4 3 4 1 2 3 2 3 4 1 4 1 2 2 4 4 3 4 4 1 2 3 7 2 12 14 14 13 13 13 14 13 11 11 11 9 9 9 9 8 7 6 10 6 6 7 9 8 7 7 10 11 13 11 10 10 11 11 10 9 9 9 9 9 9 9 9 8 8 9 8 9 9 7 7 9 8 8 8 8 9 9 10 11 11 10 9 8 8 8 7 7
2 0 3 1 5 5 4 5 5 4 1 2 2 7 7 3 2 3 2 2 8 6 3 3 2 2 1 2 9 17 15 14 15 15 14 11 11 10 8 8 7 7 6 7 6 7 7 9 9 3 5 9 10 9 8 10 10 12 11 11 11 11 10 11 10 10 9 8 9 8 7 6 5 5 6 6 8 7 7 8 8 8 8 8 8 8 9 9 9 10 9 9 8 7 6 7 6
2 4 2 4 1 6 4 6 7 2 2 3 6 5 5 6 2 3 3 6 5 4 4 3 5 7 5 9 16 17 15 16 15 15 13 12 10 10 9 8 7 6 6 6 4 6 7 8 9 10 8 10 10 8 7 7 7 11 9 8 8 9 10 10 9 7 8 7 8 7 5 5 4 4 5 6 5 6 7 8 8 8 8 8 7 7 8 8 8 9 9 9 7 6 4 3 3
3 2 2 6 4 3 4 2 4 1 2 4 3 3 2 3 4 2 2 3 7 5 3 3 7 9 12 15 17 17 16 14 14 14 16 15 13 14 12 11 9 8 8 5 4 2 3 6 8 8 10 10 11 9 7 7 9 7 8 8 7 9 9 8 7 8 7 7 7 6 5 4 4 4 4 4 4 5 6 7 8 8 8 8 7 7 7 7 7 8 8 7 7 4 3 3 3
1 3 5 3 6 4 4 2 3 5 3 8 6 1 4 4 3 1 2 6 4 7 5 3 5 8 12 15 15 16 15 14 12 13 14 13 13 12 11 12 11 10 10 8 6 2 4 6 8 9 10 10 9 7 7 7 7 6 5 7 7 6 7 6 7 7 6 6 6 5 4 4 4 3 5 8 7 4 4 5 5 7 7 7 6 5 7 6 8 9 8 4 2 2 3 3 3
3 3 3 2 3 3 3 7 8 5 3 4 1 3 3 4 2 3 5 6 4 6 7 7 10 13 15 15 15 15 15 15 15 13 12 11 11 10 10 9 11 11 10 11 8 7 7 6 6 7 7 9 9 7 8 8 8 8 7 8 7 7 7 6 6 6 6 6 6 5 5 4 4 4 4 4 4 4 5 4 3 3 3 4 4 3 2 4 3 4 3 2 2 2 3 3 2
4 4 1 3 3 4 7 4 3 3 1 3 1 6 4 1 2 3 9 5 3 5 4 3 8 17 19 18 16 14 16 16 15 14 13 13 14 11 9 8 9 8 9 10 10 7 8 7 7 6 6 8 7 7 7 7 7 7 8 7 6 5 5 4 5 4 5 6 6 6 5 5 4 4 5 4 4 4 4 4 3 3 3 3 3 3 2 2 2 3 2 2 2 1 2 3 3
5 1 3 3 3 5 2 1 2 4 1 1 6 2 3 2 2 4 5 6 3 2 2 6 13 17 17 17 17 16 16 17 16 16 15 13 13 12 11 9 11 9 8 8 11 8 8 8 8 8 8 8 9 7 7 7 6 6 5 6 7 5 4 5 5 5 5 6 6 5 5 5 5 5 5 5 5 4 4 4 4 3 3 3 2 2 2 2 2 3 2 3 2 1 2 3 3
4 4 2 4 6 8 3 4 2 3 1 4 1 2 6 2 5 1 5 7 2 5 2 10 15 16 17 18 17 17 18 18 16 15 15 13 14 15 12 10 10 9 8 8 8 8 8 9 9 9 9 9 8 8 8 7 6 7 5 6 6 6 5 6 5 5 5 6 6 5 4 5 5 5 5 5 5 5 4 4 4 4 4 4 4 3 3 2 2 2 3 3 2 2 2 2 3
5 4 4 3 3 6 4 4 6 5 5 3 3 4 5 4 3 4 7 3 1 4 7 13 16 17 16 17 17 16 16 15 15 14 12 10 8 8 8 6 8 9 10 9 8 8 9 8 9 9 9 10 8 8 8 6 7 7 6 6 6 6 6 5 5 5 5 5 5 5 4 3 4 4 5 4 4 4 4 5 4 4 4 3 4 4 3 3 2 2 3 3 3 2 2 3 2
6 6 3 1 5 4 3 5 8 6 3 3 3 7 3 5 3 5 4 4 3 7 10 13 16 17 17 17 17 16 15 16 15 15 14 11 9 9 10 8 8 9 9 9 9 7 8 9 11 10 10 9 8 8 6 6 7 6 7 6 6 7 6 6 6 5 5 4 4 2 2 3 4 4 5 4 5 4 4 4 4 4 4 4 3 3 3 2 3 3 3 3 3 2 2 3 2
4 4 5 5 3 4 2 4 2 2 3 4 3 5 3 1 3 3 3 3 7 9 10 12 15 17 16 15 15 15 16 16 16 13 11 10 10 9 10 11 10 9 9 9 8 8 7 9 9 10 9 8 8 8 8 7 7 7 7 6 6 6 6 6 6 5 4 4 3 2 4 2 3 3 6 7 5 4 4 4 4 4 4 4 3 3 3 2 2 2 3 4 3 3 3 2 2
3 3 2 4 5 5 5 4 7 1 5 7 8 3 3 2 3 3 3 6 8 11 11 13 13 14 14 15 15 13 12 10 11 11 13 12 10 9 10 9 9 8 9 9 7 7 8 9 8 9 8 8 8 7 7 7 8 8 8 7 7 5 6 6 5 5 5 3 2 5 3 3 3 2 6 6 3 4 6 5 4 4 3 3 3 3 3 2 2 2 3 4 4 4 4 3 3
1 3 3 2 3 4 4 6 1 4 3 4 5 1 3 2 5 1 4 8 9 11 13 13 14 13 14 14 12 12 11 10 8 9 10 9 9 9 11 10 9 9 6 8 8 8 9 8 9 9 8 8 9 8 7 7 7 7 7 7 6 5 5 5 5 4 3 3 4 5 5 4 4 5 5 6 4 2 2 9 5 3 2 3 3 4 4 2 2 2 4 4 4 4 4 4 4
2 3 1 3 2 3 1 1 1 4 2 5 6 7 4 6 6 2 6 9 10 11 12 13 12 12 12 13 13 12 10 9 9 8 9 9 10 11 12 10 9 8 7 5 5 7 6 5 6 7 8 9 9 8 7 6 6 6 5 5 5 5 4 4 3 3 2 4 4 4 4 4 5 6 6 5 5 5 5 5 9 2 2 3 3 4 3 3 2 2 3 4 4 3 4 4 4
3 1 0 1 1 4 2 1 3 5 2 6 4 7 3 4 6 4 5 9 13 11 11 13 12 12 12 12 12 12 11 9 9 9 9 9 9 10 12 11 12 12 10 10 9 8 7 5 6 7 8 10 9 8 7 6 6 5 5 5 4 4 3 2 2 1 2 3 4 4 5 6 6 6 7 6 6 4 2 3 8 3 2 3 3 3 3 3 3 2 2 4 4 3 4 6 4
2 4 3 1 3 2 4 2 6 6 3 1 5 5 7 5 1 3 8 9 9 9 11 12 12 12 12 12 12 12 10 9 10 9 8 8 9 10 12 13 12 10 11 10 11 9 5 10 6 7 9 9 9 8 7 6 6 6 5 5 4 4 3 3 2 2 2 3 3 4 4 5 6 6 6 5 4 4 5 4 6 4 3 3 3 3 3 3 3 2 3 4 4 2 4 4 3
2 3 1 2 1 1 4 3 3 3 3 1 7 4 1 6 0 2 8 11 10 9 11 12 13 13 11 12 11 11 9 8 9 9 10 9 9 9 11 12 12 10 10 12 13 11 8 6 10 7 10 9 8 8 7 6 6 7 6 5 5 5 3 3 3 3 3 3 3 2 3 3 5 6 6 6 4 5 4 4 5 5 3 3 3 3 2 1 2 3 4 4 2 2 3 6 5
3 2 2 1 3 3 3 1 2 1 3 5 4 6 7 2 2 1 9 11 11 9 12 13 13 12 12 12 12 12 10 9 11 10 10 10 9 10 8 8 12 9 8 8 10 13 12 10 4 10 7 8 7 7 6 6 6 6 5 5 5 4 3 2 2 2 2 2 2 3 3 3 3 4 5 7 6 5 5 5 5 4 4 4 4 4 3 3 3 4 7 6 3 2 2 4 5
5 4 3 3 2 3 3 2 2 2 2 4 2 8 9 8 1 2 9 11 10 9 10 12 13 12 12 11 12 12 11 11 12 10 12 10 10 9 6 8 9 7 5 8 10 9 11 11 10 8 9 7 6 6 6 6 6 4 4 5 5 4 3 2 2 2 2 2 1 2 3 3 3 3 4 5 5 5 4 4 4 4 4 4 4 4 4 4 4 4 8 7 3 3 3 3 4
5 4 2 1 2 3 3 4 1 3 4 5 8 8 10 12 6 3 7 11 11 7 8 9 10 10 10 11 11 12 11 12 11 9 10 8 8 7 6 7 9 7 6 5 7 10 10 8 8 7 9 7 6 5 6 5 5 5 4 4 4 4 3 3 2 2 2 2 2 2 3 3 3 4 4 3 3 3 3 3 4 4 4 4 4 4 4 4 5 6 7 11 8 4 2 3 3
5 3 3 2 2 4 5 5 3 2 2 7 7 10 9 7 7 5 7 9 10 11 11 11 11 11 12 12 12 12 13 12 9 9 10 10 9 7 6 6 7 6 6 7 6 3 4 9 8 10 8 8 7 7 6 6 6 4 3 3 4 4 4 4 3 2 2 2 3 3 3 3 4 4 4 4 4 3 3 3 4 4 3 3 3 4 5 6 6 7 7 7 9 7 4 3 3
2 3 2 2 3 4 3 3 2 3 3 1 2 4 9 11 1 2 5 9 12 13 12 11 14 13 12 13 13 13 11 7 9 8 10 9 7 8 7 6 7 9 7 8 9 8 6 7 11 9 6 8 9 6 5 5 4 4 4 4 4 4 5 4 4 3 2 3 4 4 4 4 3 4 4 5 4 4 4 4 4 3 2 3 4 4 5 6 7 7 7 7 5 6 5 5 4
3 3 1 3 4 5 9 1 2 1 3 3 1 4 6 6 0 1 9 13 7 10 9 10 13 14 12 12 13 12 11 10 10 10 10 10 10 9 7 8 8 8 9 9 7 7 8 7 7 8 7 7 6 5 6 5 3 2 2 3 4 4 3 2 3 3 3 4 3 4 5 5 4 3 4 5 5 4 4 4 4 4 3 4 4 4 5 5 5 6 6 7 7 4 4 4 4
3 3 3 5 2 1 3 3 1 3 1 2 3 3 1 2 0 1 3 6 2 3 5 4 9 12 13 13 12 12 13 12 11 12 12 11 10 10 8 10 10 9 7 6 6 8 7 6 7 8 7 7 6 6 5 4 5 5 5 4 4 2 4 4 4 4 5 5 5 3 4 5 6 5 5 5 4 5 5 5 5 4 4 4 4 4 4 4 4 4 4 5 7 6 4 4 1
1 4 3 4 4 4 4 1 1 0 2 0 4 4 2 3 2 2 3 1 3 0 5 4 7 10 9 9 11 13 14 13 12 12 12 12 13 12 11 10 7 8 10 10 9 9 6 9 9 9 8 8 7 7 7 7 7 6 6 5 5 6 5 5 5 4 3 4 5 4 3 3 5 6 5 5 5 5 5 5 5 5 5 4 4 4 4 4 4 4 4 5 5 5 5 3 3
2 6 10 9 5 4 4 3 3 2 3 2 3 2 3 1 1 0 1 2 8 1 5 8 7 10 10 12 13 13 12 9 11 13 13 13 12 11 11 10 10 10 10 10 10 10 9 9 10 9 7 7 8 9 9 8 7 8 7 7 6 4 5 4 4 5 4 3 4 2 4 3 3 4 5 5 5 6 5 5 5 5 5 4 3 4 4 5 5 5 6 5 6 5 5 5 4
2 5 11 12 3 1 2 1 1 2 3 2 1 3 3 2 4 2 1 2 7 3 5 7 8 10 11 12 12 12 11 9 7 8 11 12 13 12 12 11 12 11 12 11 11 11 11 10 11 11 9 8 8 9 10 8 8 8 9 8 7 7 6 3 2 3 4 3 3 4 3 3 3 3 4 5 6 6 6 5 5 5 5 4 4 4 4 5 5 5 4 4 4 4 5 4 5
6 1 5 6 5 6 4 3 4 1 2 1 2 2 3 4 3 1 3 4 6 7 6 7 8 10 11 10 11 11 10 10 9 10 12 13 13 15 16 14 12 13 12 12 11 11 13 13 13 12 8 9 8 8 10 9 9 8 7 6 5 5 5 6 5 4 4 4 5 4 3 3 3 3 3 4 5 6 5 5 4 4 4 3 3 3 4 4 4 4 4 3 3 3 4 3 5
1 2 5 9 8 5 4 3 2 1 2 3 2 4 3 1 1 2 3 7 6 8 9 9 10 10 9 10 10 11 11 11 11 10 12 13 14 14 13 13 13 13 12 12 12 11 10 10 10 9 9 8 7 10 9 9 7 8 7 7 6 4 6 6 5 4 4 4 6 4 4 3 3 3 3 3 3 4 4 4 4 4 3 3 2 3 4 4 5 5 5 4 4 3 3 3 5
1 6 8 7 6 5 1 1 2 1 2 3 2 6 3 2 1 1 3 2 0 1 3 7 9 9 9 9 9 10 9 9 10 11 9 7 7 7 6 5 5 3 10 13 11 3 5 8 9 10 9 6 6 8 7 8 7 7 6 6 8 7 6 6 5 6 5 4 6 5 4 3 3 3 3 3 3 4 4 4 4 4 4 3 2 2 4 4 4 4 4 4 4 4 3 3 3
7 4 8 4 4 2 2 4 1 2 2 1 4 3 3 5 2 1 2 3 2 4 2 2 2 7 8 8 10 9 9 9 8 7 4 6 6 6 5 6 11 15 16 18 17 16 14 8 4 11 9 7 7 7 8 9 8 8 7 8 8 8 7 7 7 5 5 5 5 4 4 3 3 3 2 3 3 3 3 3 3 4 3 2 2 2 3 3 4 3 3 4 4 4 3 4 4
4 2 3 5 3 2 2 2 2 1 3 2 3 2 3 5 3 1 2 3 2 3 6 8 5 4 7 6 7 8 9 8 6 6 7 8 8 8 8 8 10 12 13 13 9 9 12 14 17 13 2 8 7 7 7 8 7 7 7 8 8 7 7 6 6 6 5 6 5 5 3 3 3 3 2 3 3 3 3 3 4 4 4 3 3 2 2 3 3 3 3 3 4 4 5 5 5
2 4 4 5 2 0 3 2 4 5 2 3 3 1 2 2 2 3 7 6 5 3 5 7 9 9 6 6 6 5 4 5 6 7 8 8 7 7 7 7 9 9 8 11 12 10 10 6 7 12 17 15 1 4 6 6 6 6 6 7 6 5 5 5 5 5 4 5 4 4 4 4 3 3 2 3 3 3 2 3 3 3 3 3 3 4 3 3 3 3 4 5 5 5 5 6 5
4 6 4 6 3 2 2 1 2 3 3 1 1 1 2 3 0 3 6 7 8 8 6 6 7 8 9 8 4 3 4 6 7 7 7 7 7 7 8 7 5 4 7 8 10 10 10 10 10 8 3 7 14 8 5 6 8 7 6 5 4 4 4 3 3 4 4 4 3 4 3 3 3 3 3 3 3 3 3 3 3 4 3 4 3 4 4 3 3 4 4 5 5 4 4 6 6
6 3 7 5 6 4 3 4 4 5 3 2 1 3 3 8 3 5 6 6 7 6 6 5 4 5 6 5 3 4 7 7 8 8 9 9 9 10 9 8 7 6 8 5 5 8 8 8 9 11 10 7 7 10 8 10 9 10 7 4 2 3 4 4 4 3 3 4 3 3 3 2 3 3 3 3 3 3 3 3 3 4 3 3 3 4 3 3 3 4 4 5 4 4 5 5 5
1 1 3 4 4 3 5 1 3 4 3 1 3 1 1 3 1 3 3 2 6 8 10 8 8 5 3 5 6 7 8 9 9 11 11 11 10 9 7 6 6 8 9 9 7 7 7 7 7 6 9 11 11 6 3 7 9 9 8 6 4 3 4 4 4 5 4 4 3 2 3 2 2 3 3 3 4 3 3 3 4 5 4 4 4 4 3 3 3 4 4 4 5 2 4 6 5
5 4 6 1 4 7 5 2 3 2 1 2 2 3 2 2 3 2 2 3 7 8 10 9 9 7 6 7 8 9 10 11 9 9 10 10 9 7 3 1 3 3 3 7 5 3 8 7 7 9 12 12 13 9 9 9 9 10 8 9 7 7 6 6 4 5 4 4 2 1 2 3 3 2 3 3 4 3 3 3 4 5 4 4 4 4 4 4 3 4 4 5 5 3 3 4 3
8 5 5 5 1 4 2 3 1 0 4 2 1 1 1 4 4 1 1 4 5 8 10 8 9 8 8 6 6 9 12 12 11 9 8 8 7 12 7 6 1 3 2 3 3 3 5 6 8 13 12 12 12 13 10 2 6 10 11 8 5 5 6 6 4 3 5 4 2 0 2 3 3 3 3 3 4 4 4 4 4 4 4 4 4 4 4 4 4 5 5 5 4 4 5 4 4
1 1 8 5 2 5 2 3 1 3 3 1 2 1 2 2 1 7 9 11 11 11 9 9 10 10 8 6 5 5 8 8 8 7 6 5 3 3 1 4 1 3 3 2 3 4 4 5 9 12 12 11 11 9 9 7 9 10 10 11 12 10 8 8 8 6 2 6 6 3 2 3 4 4 4 4 4 4 3 3 3 4 4 4 4 4 4 4 4 5 5 5 4 3 5 5 3
5 5 6 3 2 2 5 1 1 6 3 1 2 2 2 1 2 6 10 9 10 10 8 8 8 9 7 6 6 7 7 7 7 7 7 6 7 3 3 4 4 4 2 1 2 3 6 8 10 11 10 11 12 13 13 11 10 10 9 8 7 7 8 6 5 6 6 3 4 4 3 4 4 4 4 5 4 4 4 4 3 3 4 3 4 4 4 4 4 4 5 5 4 5 6 6 5
3 4 2 2 3 2 2 3 0 4 3 2 3 3 3 2 3 6 9 9 10 8 7 5 6 8 8 8 7 6 7 7 7 7 9 9 7 5 6 6 6 5 5 3 3 5 6 7 9 12 13 13 13 12 11 9 9 9 9 9 9 7 7 5 6 5 5 4 4 4 3 1 3 4 5 5 5 5 4 4 4 3 3 3 3 3 3 3 4 4 4 4 4 4 5 4 5
4 7 5 6 8 7 7 5 2 1 3 3 4 4 3 3 4 5 7 8 8 7 4 2 6 8 8 7 8 8 7 8 8 6 6 7 7 7 8 7 7 7 6 6 5 6 7 7 8 10 11 11 12 12 10 10 8 8 10 9 9 7 6 5 5 4 5 5 5 4 4 3 4 3 5 6 6 5 4 4 4 4 4 4 3 4 3 2 3 3 4 2 2 3 3 4 3
Wind_Direction
229 55 70 95 156 184 176 200 209 152 204 230 295 198 111 268 314 277 249 332 247 74 343 117 161 162 187 238 192 79 13 166 152 171 206 69 145 140 148 137 139 143 143 142 138 140 138 136 133 130 127 126 123 124 126 125 124 122 120 120 121 121 122 122 123 123 122 123 126 130 131 131 131 130 130 129 129 129 127 129 129 126 123 120 119 120 122 123 123 124 125 124 122 122 119 117 114
119 89 77 190 141 187 169 314 47 173 315 259 233 92 107 169 225 275 305 292 320 82 100 92 82 68 53 94 112 127 61 24 13 43 83 125 127 134 136 141 148 145 144 144 140 140 138 138 136 133 129 126 125 125 127 128 128 127 126 125 125 125 124 123 124 127 126 128 131 134 134 135 133 132 132 129 122 123 127 129 129 128 126 124 124 126 128 129 129 129 130 129 126 122 122 120 118
151 139 108 150 123 331 104 294 222 145 199 222 228 198 103 178 41 3 345 121 134 139 104 56 90 50 57 98 134 325 119 51 111 101 102 140 136 141 146 147 148 144 143 143 142 139 139 140 136 132 130 127 126 126 125 125 126 128 130 131 131 130 129 130 129 130 129 132 135 136 137 136 134 132 130 125 122 119 115 127 129 130 127 126 125 126 128 129 130 129 129 130 130 128 125 122 123
99 121 169 194 132 280 155 136 172 174 194 221 283 144 205 119 78 9 80 134 149 344 198 66 51 3 287 84 44 78 96 134 125 133 128 156 146 146 147 147 143 142 140 144 145 141 141 141 138 133 131 129 128 127 128 127 127 126 125 125 125 122 122 121 122 125 129 132 136 138 139 137 136 132 129 125 120 121 126 129 133 135 125 128 128 127 127 128 129 130 131 130 130 130 128 126 127
185 112 238 214 185 154 183 178 198 190 216 185 191 75 186 148 72 50 115 185 197 313 31 134 123 64 56 59 341 295 120 96 129 149 134 126 131 143 145 143 141 144 144 145 145 141 141 141 137 136 134 133 132 132 130 129 127 125 127 128 125 118 116 118 121 123 125 129 133 135 136 134 131 130 127 126 126 128 134 141 138 116 119 124 122 124 127 130 132 132 130 131 133 134 131 129 127
94 189 123 240 260 36 96 174 193 217 236 100 238 101 177 164 22 348 356 269 250 222 121 134 64 147 89 22 9 123 46 161 136 123 145 136 141 144 143 143 144 144 144 145 145 144 143 139 138 138 137 134 132 129 128 128 129 129 128 127 125 119 117 119 122 122 121 121 121 123 126 127 128 128 130 130 130 134 128 112 109 117 123 122 121 123 125 128 131 130 132 130 127 131 130 128 129
148 164 102 130 107 282 224 222 218 223 228 188 253 201 197 216 299 286 299 317 188 177 197 167 132 120 117 116 116 28 297 269 186 131 154 140 139 143 145 147 144 143 144 145 148 142 143 140 140 138 134 133 132 130 130 130 130 130 129 127 123 122 121 121 122 121 121 120 120 118 117 119 123 127 129 127 128 119 122 118 122 124 126 127 124 122 122 124 128 130 126 130 127 122 121 126 127
52 230 114 191 141 227 203 249 247 185 229 199 307 282 279 133 209 249 273 220 198 223 116 125 150 133 96 198 208 82 53 338 114 126 131 140 141 144 148 147 145 145 145 144 145 142 136 136 133 132 132 133 133 134 133 132 132 131 129 125 123 122 121 120 119 119 121 122 119 116 115 117 122 125 124 124 120 117 114 118 125 123 126 120 116 114 117 121 123 124 124 126 127 126 124 115 109
102 99 11 172 174 42 201 230 262 187 300 273 260 213 277 249 225 245 261 224 66 200 146 151 160 190 153 139 114 79 62 111 118 123 136 137 142 145 148 148 144 143 141 142 141 142 142 134 129 128 131 134 134 133 132 132 133 133 131 127 124 120 116 114 117 121 120 118 117 118 118 121 125 122 118 120 120 118 121 124 122 126 124 123 114 110 112 115 116 111 115 126 128 122 113 105 98
94 274 167 167 71 201 0 235 215 214 235 274 299 292 264 140 226 221 251 249 216 155 137 109 179 123 138 130 130 131 127 128 124 122 139 143 142 142 144 144 141 139 142 142 145 144 140 137 133 132 131 131 129 129 127 124 124 127 131 128 123 118 116 117 121 123 121 117 116 117 119 118 118 116 116 123 123 123 126 125 125 127 125 117 111 104 105 106 106 109 116 116 110 105 110 115 116
152 53 2 174 187 216 217 216 248 270 238 292 278 252 266 228 208 216 221 251 156 173 146 157 108 126 143 117 85 81 142 136 134 134 141 144 143 139 136 138 139 140 139 144 143 140 139 142 136 129 123 121 128 136 134 136 140 132 124 124 123 120 122 128 131 124 119 116 116 117 115 115 116 116 118 119 119 122 125 126 128 126 120 117 109 100 99 100 100 98 95 96 100 103 107 118 124
148 206 178 194 214 208 221 252 274 284 285 298 273 32 54 250 183 217 211 218 177 160 167 196 166 147 114 131 141 136 140 143 132 133 136 141 141 136 132 132 134 137 138 141 142 140 139 135 138 132 129 134 140 141 136 130 127 135 139 140 128 127 129 134 128 121 115 114 115 113 112 116 117 113 109 113 116 121 122 122 121 120 119 111 105 102 99 98 95 89 89 86 85 94 105 111 120
184 114 160 186 213 212 98 254 241 312 310 207 338 10 340 174 207 234 189 166 150 158 160 205 133 153 121 145 115 129 142 135 133 134 136 134 133 129 128 131 133 135 138 143 142 141 136 140 133 142 139 143 138 139 134 130 131 134 148 145 129 128 128 130 123 118 114 114 113 109 105 106 109 111 107 106 112 116 117 118 120 120 117 113 109 105 100 99 96 95 92 91 88 89 97 100 116
206 196 158 213 42 192 185 267 357 266 176 103 138 302 336 338 325 220 148 146 161 160 46 145 148 117 89 123 156 156 142 138 138 134 134 123 126 130 130 132 134 137 139 142 141 139 138 141 151 154 151 153 148 142 146 138 138 141 149 137 130 127 124 122 120 116 114 111 109 109 109 110 112 113 113 112 111 111 114 116 117 117 114 110 108 106 100 97 95 91 88 84 82 86 95 93 64
209 154 121 74 156 172 198 215 224 203 129 33 73 336 356 46 27 104 147 142 141 5 105 110 97 227 157 176 178 182 142 140 136 134 128 123 125 128 131 131 128 129 134 133 129 126 140 147 152 157 156 152 148 146 151 149 148 150 147 147 135 123 118 119 118 116 115 112 112 118 120 119 116 115 117 118 114 114 112 113 110 113 113 114 111 109 104 99 95 89 83 81 85 81 81 70 44
125 138 83 199 184 206 181 220 224 177 134 198 37 303 176 51 21 119 60 336 94 131 183 140 224 31 119 203 109 149 134 132 130 128 123 119 118 117 120 123 118 121 124 122 131 128 137 149 139 149 162 150 151 145 148 158 156 152 148 142 131 121 120 120 120 125 126 125 123 128 130 131 128 125 125 123 119 113 111 112 112 112 113 112 112 108 102 101 101 95 93 91 86 84 78 66 51
123 310 184 159 212 194 161 208 173 173 66 219 309 19 16 37 346 60 338 193 138 136 69 27 52 333 198 132 127 123 123 122 125 124 119 117 120 113 111 114 111 112 118 109 86 132 179 149 139 104 168 157 155 152 158 162 157 155 148 142 135 129 128 133 132 130 134 135 140 129 128 135 135 134 139 126 129 126 117 122 121 119 117 116 113 105 103 105 106 103 101 97 90 80 75 77 59
186 194 187 216 160 190 179 205 191 69 285 17 4 355 350 31 87 100 144 84 93 115 67 55 68 51 71 103 122 114 113 125 131 128 124 124 130 128 126 116 107 106 115 122 175 176 153 139 139 156 168 163 153 155 161 160 160 165 154 149 148 148 146 144 146 151 155 154 139 144 147 140 145 142 135 130 130 134 136 131 128 124 121 120 114 111 107 107 107 108 107 102 98 89 84 81 79
189 109 210 236 160 193 191 199 206 289 356 320 330 339 343 353 256 139 205 121 144 163 72 72 79 79 99 116 115 120 125 130 135 136 141 144 147 143 139 138 136 138 127 93 4 348 110 137 149 160 165 163 162 162 160 161 160 150 154 158 162 163 161 157 158 160 163 163 165 160 151 147 150 142 140 140 131 119 123 135 132 130 129 124 124 120 116 113 118 115 104 96 100 128 110 78 70
169 206 215 235 206 259 215 193 260 220 328 312 333 43 309 330 239 113 244 150 160 192 159 157 139 129 124 124 124 132 135 136 135 138 142 146 148 141 134 135 137 134 132 133 158 211 187 154 165 167 163 161 158 158 159 155 157 148 156 171 168 162 161 165 167 163 166 165 163 164 145 150 152 138 135 132 132 131 124 128 124 129 133 128 126 139 130 117 103 92 87 88 134 89 82 88 84
133 217 226 207 178 223 211 188 243 253 240 288 343 274 296 55 257 244 130 139 219 230 222 188 170 149 142 139 139 141 143 143 146 147 143 134 134 141 147 148 151 143 136 150 168 167 169 165 171 167 162 159 156 159 165 161 160 163 165 175 170 166 168 173 168 169 168 166 167 167 161 159 154 161 156 152 152 153 153 146 142 153 139 127 135 119 129 123 141 126 116 105 78 75 78 84 88
134 225 195 118 134 231 268 219 185 216 269 252 329 329 352 271 145 215 169 197 179 213 236 190 132 155 153 151 151 149 149 151 157 155 150 150 149 150 149 134 143 144 137 155 161 159 167 169 176 166 162 159 162 164 165 157 158 169 170 172 163 162 164 172 164 159 170 172 176 180 163 164 163 164 162 166 155 156 156 145 152 147 146 137 149 129 127 129 136 123 120 105 89 67 80 77 84
221 146 250 228 186 251 299 330 136 173 197 274 311 342 330 43 348 192 226 231 96 312 289 156 151 158 158 155 154 154 154 160 162 165 160 158 157 157 161 147 154 167 171 158 149 147 164 173 178 172 169 165 166 164 162 155 167 174 168 164 169 163 162 172 176 177 176 181 186 181 177 174 173 170 170 165 159 161 163 159 157 164 158 149 138 145 124 142 140 134 128 111 105 110 97 101 113
236 226 138 221 199 229 237 270 159 223 206 261 153 338 286 302 290 139 206 230 9 320 240 151 147 152 157 160 165 159 161 163 166 167 170 167 166 165 162 159 157 152 171 154 149 152 164 174 179 175 174 167 161 161 160 159 166 171 161 168 173 175 177 185 182 188 187 191 195 190 189 183 181 185 181 172 165 173 174 169 163 167 172 156 153 154 148 155 137 129 131 127 121 99 101 101 117
205 228 189 261 196 231 254 266 276 264 241 255 231 270 273 184 240 137 231 239 342 105 130 139 146 153 162 162 163 162 160 160 162 166 169 175 167 151 153 159 157 154 165 161 156 168 169 173 179 181 173 166 158 162 166 161 168 174 175 178 181 177 188 198 198 195 201 197 198 198 203 196 192 194 187 172 169 183 177 176 179 186 182 168 162 157 160 145 144 133 121 114 112 87 93 89 114
205 223 186 188 243 248 248 280 263 271 265 173 194 244 99 220 99 245 261 61 125 134 137 145 152 158 165 168 169 168 165 166 164 166 169 167 163 144 161 167 155 162 167 164 162 174 169 175 181 180 177 163 158 165 166 165 172 179 183 185 185 191 197 202 206 207 210 204 196 215 314 236 208 201 194 173 189 203 192 195 196 194 180 167 172 164 155 156 143 137 127 112 96 79 62 76 116
158 189 208 231 263 331 282 233 276 52 257 183 230 255 89 59 209 233 69 98 135 130 139 155 161 165 167 169 174 171 170 171 170 160 158 162 160 158 164 171 163 167 160 167 174 171 170 178 181 177 172 161 166 174 173 172 176 185 192 192 195 199 196 197 210 213 211 207 61 78 219 316 11 27 39 5 321 252 215 208 210 198 186 174 176 167 166 163 149 131 124 113 101 79 71 70 81
165 177 211 239 303 255 248 296 267 303 276 190 217 246 124 121 188 249 123 142 152 141 151 165 169 166 168 171 171 172 166 163 163 159 157 157 164 161 159 167 165 162 167 170 178 168 174 180 172 176 167 168 178 176 172 172 180 188 191 196 201 195 193 206 212 215 210 108 147 213 212 201 137 124 129 169 175 308 313 272 206 200 194 176 178 169 163 165 151 115 100 92 88 100 104 97 92
64 188 274 284 331 269 172 225 359 198 236 157 180 203 229 135 227 91 154 153 159 150 159 168 172 169 169 172 170 172 170 160 161 170 162 152 156 162 154 160 164 162 164 172 179 177 180 173 175 171 171 176 185 180 178 180 182 187 188 198 199 197 202 208 217 214 184 114 210 201 183 178 160 170 161 173 187 187 266 280 256 209 187 177 174 170 161 156 152 136 110 106 107 110 118 119 108
133 97 294 286 339 252 120 229 336 181 257 158 163 236 217 223 210 97 167 159 152 148 163 170 172 174 172 173 175 175 161 158 171 170 160 159 158 163 158 147 130 138 142 141 154 181 167 179 175 174 180 186 192 186 183 184 186 190 194 192 196 198 203 209 223 214 176 149 212 195 168 189 194 193 166 166 176 178 189 260 285 232 186 168 158 153 164 170 149 137 118 113 101 129 133 123 110
211 112 124 303 229 215 146 80 116 196 114 181 182 243 216 237 244 194 174 173 161 160 168 173 173 175 175 174 174 178 172 170 174 167 163 168 164 165 157 145 135 124 107 96 83 17 327 210 180 182 191 192 193 192 193 191 186 189 186 186 186 184 175 190 190 177 148 144 192 207 194 194 194 196 185 178 167 175 174 222 267 247 195 169 156 164 182 165 159 147 137 114 131 150 96 66 70
36 171 200 155 226 197 274 188 197 210 86 250 194 245 242 246 75 118 174 180 176 163 171 176 177 178 176 172 175 174 168 178 179 176 175 169 168 167 166 161 149 140 138 142 131 115 42 322 221 199 191 192 193 195 197 194 188 186 178 168 162 163 161 172 177 191 188 175 197 213 207 189 175 173 182 160 168 197 208 203 247 240 196 174 160 160 193 174 152 143 115 126 152 131 109 108 94
35 247 179 180 226 257 303 162 252 275 94 106 218 246 60 248 283 233 190 181 184 168 176 180 182 181 174 175 176 179 153 170 184 183 181 177 186 179 180 168 157 153 157 156 144 130 113 61 314 235 198 193 191 194 196 190 174 173 165 157 154 152 157 156 153 153 149 150 156 176 193 201 176 169 161 169 170 202 205 203 229 223 181 158 153 161 182 161 148 126 114 82 117 173 157 134 127
187 358 198 160 199 156 201 318 124 317 234 176 215 237 233 277 3 137 183 188 180 180 178 184 185 183 180 178 179 182 171 171 188 189 183 188 190 189 184 167 167 160 181 158 145 149 143 133 179 280 224 199 185 182 185 173 169 160 154 148 142 131 127 134 127 135 128 132 151 156 170 185 180 194 192 159 180 195 197 205 207 174 162 148 145 157 162 152 149 128 113 109 162 175 142 133 136
181 170 167 180 227 250 295 258 124 171 79 217 181 232 241 246 102 189 184 193 196 189 175 185 189 187 181 184 186 186 186 182 193 187 184 185 187 185 174 169 173 169 174 159 149 146 141 160 167 214 236 197 178 174 165 149 137 118 120 133 123 116 114 103 106 110 108 116 143 159 157 152 154 176 186 189 182 174 177 178 162 156 149 141 138 145 144 134 125 139 123 129 179 201 160 143 140
160 151 155 151 225 168 210 232 129 224 203 232 192 213 226 233 231 181 196 193 198 184 173 183 195 194 191 191 191 191 191 192 191 175 169 176 180 169 162 159 171 183 147 181 175 154 150 158 157 183 213 195 172 161 163 156 156 164 144 130 124 112 114 111 110 105 115 116 122 145 154 142 144 158 167 169 160 148 159 153 150 156 146 142 138 142 140 142 146 142 125 133 142 150 158 154 137
103 114 151 183 256 266 259 265 268 271 231 236 226 226 231 241 231 181 190 190 198 193 188 186 191 194 196 196 196 196 195 192 178 166 170 178 175 164 152 151 154 170 164 167 204 179 148 149 156 190 187 184 176 174 176 173 172 146 142 165 138 134 133 136 131 122 115 102 116 123 133 133 144 152 161 162 157 149 139 135 143 146 139 132 130 123 131 132 137 136 127 126 132 138 139 146 151
160 136 215 216 198 260 223 115 29 272 236 290 77 222 235 234 207 134 167 190 203 200 194 192 195 195 197 198 199 199 193 170 151 161 172 174 174 159 153 155 162 169 190 184 185 174 183 172 161 183 166 181 188 174 160 169 176 175 169 170 149 139 147 152 134 126 109 107 116 122 123 123 133 143 149 151 156 153 146 143 146 130 138 115 97 111 118 127 135 138 135 119 135 152 146 160 166
94 234 190 267 228 255 283 54 208 61 212 262 150 226 243 239 47 255 191 194 211 210 202 201 189 191 196 201 202 199 187 179 167 171 173 178 176 165 157 172 182 190 187 189 176 163 171 177 168 173 175 172 178 173 163 171 161 123 169 137 141 112 52 63 102 104 118 113 111 116 117 125 130 130 138 139 141 150 150 144 135 131 140 115 118 118 128 133 142 144 149 136 135 130 133 152 163
173 145 202 237 95 232 171 129 89 57 271 297 182 202 309 338 357 231 259 222 312 255 229 229 204 201 203 202 199 198 196 182 171 172 178 179 176 168 165 179 185 176 178 183 181 178 179 177 171 175 174 171 165 171 164 124 108 90 75 94 86 104 130 119 107 124 123 123 111 109 113 118 120 118 126 131 129 128 130 128 131 131 118 115 121 132 140 147 164 156 147 146 136 134 160 158 156
222 218 220 258 219 210 226 85 68 95 67 2 155 130 123 35 159 147 128 213 258 193 191 194 206 216 208 203 207 207 203 188 176 174 174 176 181 180 179 193 171 180 179 180 182 186 183 176 176 180 175 168 165 165 156 137 123 107 100 95 106 105 121 139 133 104 100 113 119 107 94 121 123 119 119 120 120 123 124 125 124 121 122 126 136 137 145 160 169 164 159 152 171 171 162 151 164
188 223 215 227 222 223 234 325 317 184 183 63 249 173 135 24 356 213 50 176 214 198 211 208 197 203 193 199 204 207 210 201 188 177 175 175 176 174 184 191 181 190 189 186 185 188 178 174 177 180 170 163 166 167 157 154 151 141 146 150 156 152 147 155 148 132 130 108 89 94 100 84 103 112 115 116 121 127 127 127 125 126 128 139 146 145 154 157 178 187 186 190 184 185 165 155 155
188 225 197 223 205 234 303 265 169 203 191 88 339 254 118 5 134 111 356 226 203 157 223 212 196 197 202 211 209 205 202 197 198 173 169 173 177 176 187 194 191 192 199 183 183 187 182 176 177 177 171 167 165 163 164 158 154 161 170 170 165 162 148 107 86 95 113 112 102 83 70 60 65 108 113 122 126 127 130 131 132 132 132 136 143 158 156 162 166 168 167 185 164 148 156 163 161
204 157 157 164 192 222 221 186 216 294 12 166 6 348 150 156 144 86 307 199 184 202 214 222 214 205 204 200 199 199 199 196 190 187 182 181 178 180 189 192 193 201 196 186 181 181 180 177 175 175 168 165 166 161 168 171 163 168 163 153 145 145 141 139 137 120 114 120 108 97 94 76 53 57 95 111 125 129 127 126 127 126 129 131 156 159 156 151 149 147 168 177 158 169 172 169 167
257 155 176 161 189 196 155 201 119 12 249 177 166 9 171 151 76 264 221 180 167 206 207 213 218 215 209 204 203 202 201 198 193 189 190 185 183 186 184 191 200 204 199 190 187 178 172 168 168 166 162 161 164 167 167 176 169 164 163 149 134 130 129 130 128 122 116 111 101 91 83 81 70 51 58 97 107 117 129 135 136 139 143 148 164 135 134 141 153 159 169 176 179 174 185 157 164
94 131 91 86 84 80 153 142 134 186 211 213 103 349 187 140 29 296 6 16 7 322 204 211 218 220 213 209 207 203 199 200 202 201 194 180 169 171 183 196 197 358 9 7 9 25 152 157 162 163 161 161 156 166 171 167 169 158 154 152 138 138 130 125 130 127 121 125 106 100 97 88 79 75 71 75 96 107 119 137 150 147 151 145 146 108 133 144 154 167 177 187 181 172 169 157 143
132 185 102 83 53 43 70 54 3 143 227 229 9 358 307 159 171 142 128 81 1 331 302 121 250 243 230 216 207 203 201 200 200 189 142 101 105 126 139 137 83 60 43 30 17 9 1 337 207 171 157 144 153 171 174 170 172 166 157 154 141 132 132 132 134 126 126 123 112 104 99 93 79 77 70 71 71 95 109 114 116 122 125 122 120 137 155 148 152 153 156 159 163 161 146 130 127
171 147 136 113 63 348 60 13 5 178 211 73 18 352 316 192 168 195 272 301 257 295 304 320 328 282 252 236 225 212 200 193 168 137 127 133 135 142 140 129 115 112 119 118 103 55 25 2 358 346 67 150 162 176 183 175 172 164 145 143 139 140 144 148 145 136 133 121 114 110 104 102 90 85 80 88 76 76 96 100 102 106 107 116 114 108 109 123 126 130 133 135 121 119 123 125 119
173 122 138 192 156 72 190 198 200 209 204 60 9 22 170 236 23 327 320 335 350 334 307 307 309 304 292 266 242 213 191 160 146 141 141 146 139 132 120 117 119 114 120 133 130 128 128 109 35 3 348 339 296 168 193 182 166 147 138 135 124 129 133 135 133 122 119 119 116 117 120 109 110 110 95 92 76 66 72 90 94 94 100 98 110 113 109 111 118 119 116 117 122 127 128 129 128
179 176 148 167 165 152 204 140 358 328 274 58 356 334 307 52 268 311 301 332 342 328 312 297 285 283 286 282 259 191 155 152 139 133 121 107 90 78 65 58 68 102 147 155 152 149 146 139 138 132 116 341 337 342 2 24 32 37 49 61 94 116 116 111 109 120 112 108 117 118 119 120 122 114 111 80 69 70 68 59 71 79 81 98 102 103 110 113 118 117 117 111 106 98 110 109 112
192 43 180 196 163 174 188 192 198 213 179 97 47 198 178 171 119 316 314 330 333 348 342 323 288 276 270 280 303 117 116 113 118 112 108 104 91 84 78 76 68 39 340 298 185 150 140 150 158 147 142 113 44 1 24 56 64 58 53 49 56 127 137 130 121 103 108 109 100 104 99 104 114 105 93 86 73 69 74 79 73 85 82 83 89 95 92 94 86 96 96 94 96 108 114 114 116
63 191 57 132 211 147 232 108 235 167 151 189 179 235 357 77 157 305 318 311 28 22 15 7 10 21 68 86 93 105 111 119 120 118 114 109 113 116 124 135 159 171 182 238 230 165 151 155 153 133 101 87 92 89 100 124 128 128 135 145 149 120 93 99 91 84 78 51 24 91 107 86 74 90 88 92 69 66 72 85 85 71 65 62 60 67 72 85 78 92 98 97 100 85 114 114 120
155 160 194 205 31 112 92 101 45 351 2 207 41 260 196 151 161 150 37 69 41 21 21 22 16 20 52 78 100 115 124 126 126 123 120 126 128 129 98 313 154 111 153 227 236 180 164 147 141 111 102 107 118 145 177 192 163 152 154 111 99 87 81 71 74 93 95 98 103 36 104 97 93 95 94 91 92 80 73 68 81 83 74 73 73 68 67 68 61 70 78 82 85 72 85 94 96
110 210 172 115 89 36 146 186 60 8 207 190 82 23 297 184 163 348 140 17 22 12 12 23 37 34 54 63 98 123 133 134 131 125 119 130 141 123 172 196 151 103 170 202 190 173 174 144 120 105 125 151 156 165 181 133 71 64 69 78 77 100 101 91 62 74 103 80 8 170 131 139 126 119 111 107 106 98 90 85 93 93 92 90 89 91 89 91 95 88 82 78 74 83 87 78 72
226 286 137 182 177 188 42 110 180 163 207 186 151 295 269 259 53 2 343 345 343 349 354 22 29 28 34 56 69 50 34 29 31 43 57 61 38 31 70 76 102 128 153 144 150 157 147 116 120 138 153 159 156 153 126 128 139 150 165 160 159 146 137 141 157 143 148 159 174 197 191 139 132 140 133 129 126 115 108 104 104 103 101 99 97 94 98 95 102 108 103 101 94 104 103 95 81
58 124 123 356 273 141 163 218 112 191 185 110 173 207 193 121 341 329 297 325 330 331 341 13 34 36 30 27 33 36 40 37 40 51 64 59 56 47 44 59 44 31 56 121 144 133 133 125 128 143 150 153 155 156 162 164 158 148 161 171 162 147 152 150 131 130 148 165 151 180 183 165 158 143 137 137 137 136 134 133 127 120 114 108 102 97 92 98 101 105 118 118 119 131 125 124 124
120 158 146 104 42 309 38 63 73 214 162 195 152 193 197 104 350 308 307 316 318 312 309 358 38 51 44 36 32 37 49 64 59 59 69 71 72 68 69 67 72 75 79 98 122 134 128 130 142 151 157 161 165 167 169 163 165 168 166 164 156 156 157 149 138 140 140 148 150 165 188 168 146 158 148 149 148 146 144 138 135 128 114 109 105 98 92 102 107 110 110 114 131 141 140 136 140
178 170 184 165 140 142 176 192 105 315 169 178 170 202 116 48 353 330 316 320 316 308 292 15 67 71 63 55 48 44 44 45 63 60 67 72 64 53 50 54 61 77 85 95 107 118 131 142 148 156 159 167 168 171 173 165 170 171 178 170 162 161 155 148 147 142 147 153 157 160 162 177 194 179 168 157 156 145 142 136 120 116 117 114 107 100 94 104 119 126 124 127 134 152 147 140 154